Time,TemperatureF,DewpointF,PressureIn,WindDirection,WindDirectionDegrees,WindSpeedMPH,WindSpeedGustMPH,Humidity,HourlyPrecipIn,Conditions,Clouds,dailyrainin,SoftwareType,DateUTC
2013-04-10 00:02:00,52.0,45.0,30.19,West,264,0.0,1.0,77,0.00,,,0.00,,2013-04-10 07:02:00,
2013-04-10 00:11:00,52.0,45.0,30.19,West,264,0.0,1.0,77,0.00,,,0.00,,2013-04-10 07:11:00,
2013-04-10 00:22:00,52.0,45.0,30.19,West,264,0.0,1.0,77,0.00,,,0.00,,2013-04-10 07:22:00,
2013-04-10 00:32:00,52.0,44.0,30.18,East,89,0.0,3.0,75,0.00,,,0.00,,2013-04-10 07:32:00,
2013-04-10 00:42:00,52.0,44.0,30.18,East,89,0.0,3.0,75,0.00,,,0.00,,2013-04-10 07:42:00,
2013-04-10 00:52:00,52.0,44.0,30.18,East,89,0.0,3.0,75,0.00,,,0.00,,2013-04-10 07:52:00,
2013-04-10 01:02:00,52.0,44.0,30.17,ESE,118,1.0,3.0,75,0.00,,,0.00,,2013-04-10 08:02:00,
2013-04-10 01:11:00,52.0,44.0,30.17,ESE,118,1.0,3.0,75,0.00,,,0.00,,2013-04-10 08:11:00,
2013-04-10 01:22:00,52.0,44.0,30.17,ESE,118,1.0,3.0,75,0.00,,,0.00,,2013-04-10 08:22:00,
2013-04-10 01:32:00,52.0,44.0,30.16,East,101,0.0,1.0,73,0.00,,,0.00,,2013-04-10 08:32:00,
2013-04-10 01:42:00,52.0,44.0,30.16,East,101,0.0,1.0,73,0.00,,,0.00,,2013-04-10 08:42:00,
2013-04-10 01:52:00,52.0,44.0,30.16,East,101,0.0,1.0,73,0.00,,,0.00,,2013-04-10 08:52:00,
2013-04-10 02:02:00,51.0,45.0,30.16,East,85,0.0,0.0,80,0.00,,,0.00,,2013-04-10 09:02:00,
2013-04-10 02:12:00,51.0,45.0,30.16,East,85,0.0,0.0,80,0.00,,,0.00,,2013-04-10 09:12:00,
2013-04-10 02:21:00,51.0,45.0,30.16,East,85,0.0,0.0,80,0.00,,,0.00,,2013-04-10 09:21:00,
2013-04-10 02:32:00,52.0,45.0,30.14,West,266,0.0,3.0,77,0.00,,,0.00,,2013-04-10 09:32:00,
2013-04-10 02:42:00,52.0,45.0,30.14,West,266,0.0,3.0,77,0.00,,,0.00,,2013-04-10 09:42:00,
2013-04-10 02:53:00,52.0,45.0,30.14,West,266,0.0,3.0,77,0.00,,,0.00,,2013-04-10 09:53:00,
2013-04-10 03:02:00,53.0,45.0,30.13,ENE,60,0.0,4.0,74,0.00,,,0.00,,2013-04-10 10:02:00,
2013-04-10 03:12:00,53.0,45.0,30.13,ENE,60,0.0,4.0,74,0.00,,,0.00,,2013-04-10 10:12:00,
2013-04-10 03:23:00,53.0,45.0,30.13,ENE,60,0.0,4.0,74,0.00,,,0.00,,2013-04-10 10:23:00,
2013-04-10 03:33:00,53.0,45.0,30.13,SSW,210,2.0,4.0,73,0.00,,,0.00,,2013-04-10 10:33:00,
2013-04-10 03:42:00,53.0,45.0,30.13,SSW,210,2.0,4.0,73,0.00,,,0.00,,2013-04-10 10:42:00,
2013-04-10 03:52:00,53.0,45.0,30.13,SSW,210,2.0,4.0,73,0.00,,,0.00,,2013-04-10 10:52:00,
2013-04-10 04:02:00,52.0,45.0,30.11,SE,139,2.0,5.0,78,0.00,,,0.00,,2013-04-10 11:02:00,
2013-04-10 04:12:00,52.0,45.0,30.11,SE,139,2.0,5.0,78,0.00,,,0.00,,2013-04-10 11:12:00,
2013-04-10 04:22:00,52.0,45.0,30.11,SE,139,2.0,5.0,78,0.00,,,0.00,,2013-04-10 11:22:00,
2013-04-10 04:32:00,51.0,46.0,30.10,ESE,117,1.0,4.0,84,0.00,,,0.00,,2013-04-10 11:32:00,
2013-04-10 04:42:00,51.0,46.0,30.10,ESE,117,1.0,4.0,84,0.00,,,0.00,,2013-04-10 11:42:00,
2013-04-10 04:53:00,51.0,46.0,30.10,ESE,117,1.0,4.0,84,0.00,,,0.00,,2013-04-10 11:53:00,
2013-04-10 05:02:00,51.0,47.0,30.08,ESE,110,0.0,4.0,85,0.00,,,0.00,,2013-04-10 12:02:00,
2013-04-10 05:12:00,51.0,47.0,30.08,ESE,110,0.0,4.0,85,0.00,,,0.00,,2013-04-10 12:12:00,
2013-04-10 05:22:00,51.0,47.0,30.08,ESE,110,0.0,4.0,85,0.00,,,0.00,,2013-04-10 12:22:00,
2013-04-10 05:32:00,51.0,47.0,30.05,NNE,23,1.0,4.0,86,0.00,,,0.00,,2013-04-10 12:32:00,
2013-04-10 05:42:00,51.0,47.0,30.05,NNE,23,1.0,4.0,86,0.00,,,0.00,,2013-04-10 12:42:00,
2013-04-10 05:52:00,51.0,47.0,30.05,NNE,23,1.0,4.0,86,0.00,,,0.00,,2013-04-10 12:52:00,
2013-04-10 06:02:00,52.0,47.0,30.03,SSE,151,1.0,8.0,82,0.00,,,0.00,,2013-04-10 13:02:00,
2013-04-10 06:12:00,52.0,47.0,30.03,SSE,151,1.0,8.0,82,0.00,,,0.00,,2013-04-10 13:12:00,
2013-04-10 06:21:00,52.0,47.0,30.03,SSE,151,1.0,8.0,82,0.00,,,0.00,,2013-04-10 13:21:00,
2013-04-10 06:32:00,53.0,48.0,30.02,SW,214,2.0,6.0,82,0.00,,,0.00,,2013-04-10 13:32:00,
2013-04-10 06:42:00,53.0,48.0,30.02,SW,214,2.0,6.0,82,0.00,,,0.00,,2013-04-10 13:42:00,
2013-04-10 06:53:00,53.0,48.0,30.02,SW,214,2.0,6.0,82,0.00,,,0.00,,2013-04-10 13:53:00,
2013-04-10 07:02:00,53.0,48.0,30.00,SSE,150,1.0,4.0,83,0.00,,,0.00,,2013-04-10 14:02:00,
2013-04-10 07:11:00,53.0,48.0,30.00,SSE,150,1.0,4.0,83,0.00,,,0.00,,2013-04-10 14:11:00,
2013-04-10 07:22:00,53.0,48.0,30.00,SSE,150,1.0,4.0,83,0.00,,,0.00,,2013-04-10 14:22:00,
2013-04-10 07:32:00,53.0,49.0,29.98,ENE,72,1.0,13.0,86,0.00,,,0.00,,2013-04-10 14:32:00,
2013-04-10 07:42:00,53.0,49.0,29.98,ENE,72,1.0,13.0,86,0.00,,,0.00,,2013-04-10 14:42:00,
2013-04-10 07:52:00,53.0,49.0,29.98,ENE,72,1.0,13.0,86,0.00,,,0.00,,2013-04-10 14:52:00,
2013-04-10 08:02:00,52.0,49.0,29.95,North,11,2.0,12.0,90,0.00,,,0.00,,2013-04-10 15:02:00,
2013-04-10 08:11:00,52.0,49.0,29.95,North,11,2.0,12.0,90,0.00,,,0.00,,2013-04-10 15:11:00,
2013-04-10 08:32:00,52.0,49.0,29.94,East,79,1.0,5.0,91,0.05,,,0.05,,2013-04-10 15:32:00,
2013-04-10 08:42:00,52.0,49.0,29.94,East,79,1.0,5.0,91,0.05,,,0.05,,2013-04-10 15:42:00,
2013-04-10 08:52:00,52.0,49.0,29.94,East,79,1.0,5.0,91,0.05,,,0.05,,2013-04-10 15:52:00,
2013-04-10 09:02:00,52.0,50.0,29.95,SSW,193,1.0,6.0,93,0.12,,,0.12,,2013-04-10 16:02:00,
2013-04-10 09:12:00,52.0,50.0,29.95,SSW,193,1.0,6.0,93,0.12,,,0.12,,2013-04-10 16:12:00,
2013-04-10 09:23:00,52.0,50.0,29.95,SSW,193,1.0,6.0,93,0.12,,,0.12,,2013-04-10 16:23:00,
2013-04-10 09:32:00,52.0,50.0,29.95,West,259,4.0,12.0,93,0.11,,,0.16,,2013-04-10 16:32:00,
2013-04-10 09:42:00,52.0,50.0,29.95,West,259,4.0,12.0,93,0.11,,,0.16,,2013-04-10 16:42:00,
2013-04-10 09:53:00,52.0,50.0,29.95,West,259,4.0,12.0,93,0.11,,,0.16,,2013-04-10 16:53:00,
2013-04-10 10:02:00,52.0,50.0,29.96,West,274,4.0,12.0,93,0.08,,,0.20,,2013-04-10 17:02:00,
2013-04-10 10:12:00,52.0,50.0,29.96,West,274,4.0,12.0,93,0.08,,,0.20,,2013-04-10 17:12:00,
2013-04-10 10:22:00,52.0,50.0,29.96,West,274,4.0,12.0,93,0.08,,,0.20,,2013-04-10 17:22:00,
2013-04-10 10:33:00,52.0,50.0,29.96,SSW,200,3.0,17.0,92,0.07,,,0.24,,2013-04-10 17:33:00,
2013-04-10 10:42:00,52.0,50.0,29.96,SSW,200,3.0,17.0,92,0.07,,,0.24,,2013-04-10 17:42:00,
2013-04-10 10:52:00,52.0,50.0,29.96,SSW,200,3.0,17.0,92,0.07,,,0.24,,2013-04-10 17:52:00,
2013-04-10 11:02:00,52.0,50.0,29.96,West,281,5.0,14.0,92,0.06,,,0.26,,2013-04-10 18:02:00,
2013-04-10 11:12:00,52.0,50.0,29.96,West,281,5.0,14.0,92,0.06,,,0.26,,2013-04-10 18:12:00,
2013-04-10 11:22:00,52.0,50.0,29.96,West,281,5.0,14.0,92,0.06,,,0.26,,2013-04-10 18:22:00,
2013-04-10 11:32:00,53.0,50.0,29.97,WNW,283,6.0,16.0,89,0.02,,,0.26,,2013-04-10 18:32:00,
2013-04-10 11:42:00,53.0,50.0,29.97,WNW,283,6.0,16.0,89,0.02,,,0.26,,2013-04-10 18:42:00,
2013-04-10 11:52:00,53.0,50.0,29.97,WNW,283,6.0,16.0,89,0.02,,,0.26,,2013-04-10 18:52:00,
2013-04-10 12:02:00,54.0,51.0,30.00,WNW,290,3.0,10.0,88,0.00,,,0.26,,2013-04-10 19:02:00,
2013-04-10 12:12:00,54.0,51.0,30.00,WNW,290,3.0,10.0,88,0.00,,,0.26,,2013-04-10 19:12:00,
2013-04-10 12:22:00,54.0,51.0,30.00,WNW,290,3.0,10.0,88,0.00,,,0.26,,2013-04-10 19:22:00,
2013-04-10 12:32:00,53.0,49.0,30.02,WNW,290,5.0,11.0,86,0.00,,,0.26,,2013-04-10 19:32:00,
2013-04-10 12:42:00,53.0,49.0,30.02,WNW,290,5.0,11.0,86,0.00,,,0.26,,2013-04-10 19:42:00,
2013-04-10 12:53:00,53.0,49.0,30.02,WNW,290,5.0,11.0,86,0.00,,,0.26,,2013-04-10 19:53:00,
2013-04-10 13:02:00,55.0,50.0,30.02,WSW,253,3.0,11.0,83,0.00,,,0.26,,2013-04-10 20:02:00,
2013-04-10 13:12:00,55.0,50.0,30.02,WSW,253,3.0,11.0,83,0.00,,,0.26,,2013-04-10 20:12:00,
2013-04-10 13:22:00,55.0,50.0,30.02,WSW,253,3.0,11.0,83,0.00,,,0.26,,2013-04-10 20:22:00,
2013-04-10 13:32:00,57.0,50.0,30.04,South,170,4.0,16.0,78,0.00,,,0.26,,2013-04-10 20:32:00,
2013-04-10 13:42:00,57.0,50.0,30.04,South,170,4.0,16.0,78,0.00,,,0.26,,2013-04-10 20:42:00,
2013-04-10 13:52:00,57.0,50.0,30.04,South,170,4.0,16.0,78,0.00,,,0.26,,2013-04-10 20:52:00,
2013-04-10 14:02:00,57.0,49.0,30.06,SW,229,5.0,18.0,74,0.00,,,0.26,,2013-04-10 21:02:00,
2013-04-10 14:12:00,57.0,49.0,30.06,SW,229,5.0,18.0,74,0.00,,,0.26,,2013-04-10 21:12:00,
2013-04-10 14:22:00,57.0,49.0,30.06,SW,229,5.0,18.0,74,0.00,,,0.26,,2013-04-10 21:22:00,
2013-04-10 14:32:00,56.0,48.0,30.08,West,281,7.0,15.0,74,0.00,,,0.26,,2013-04-10 21:32:00,
2013-04-10 14:42:00,56.0,48.0,30.08,West,281,7.0,15.0,74,0.00,,,0.26,,2013-04-10 21:42:00,
2013-04-10 14:52:00,56.0,48.0,30.08,West,281,7.0,15.0,74,0.00,,,0.26,,2013-04-10 21:52:00,
2013-04-10 15:02:00,55.0,47.0,30.10,West,270,5.0,13.0,75,0.00,,,0.26,,2013-04-10 22:02:00,
2013-04-10 15:12:00,55.0,47.0,30.10,West,270,5.0,13.0,75,0.00,,,0.26,,2013-04-10 22:12:00,
2013-04-10 15:22:00,55.0,47.0,30.10,West,270,5.0,13.0,75,0.00,,,0.26,,2013-04-10 22:22:00,
2013-04-10 15:33:00,55.0,46.0,30.12,SSW,210,5.0,10.0,72,0.00,,,0.26,,2013-04-10 22:33:00,
2013-04-10 15:42:00,55.0,46.0,30.12,SSW,210,5.0,10.0,72,0.00,,,0.26,,2013-04-10 22:42:00,
2013-04-10 15:52:00,55.0,46.0,30.12,SSW,210,5.0,10.0,72,0.00,,,0.26,,2013-04-10 22:52:00,
2013-04-10 16:02:00,56.0,46.0,30.14,SW,217,4.0,12.0,69,0.00,,,0.26,,2013-04-10 23:02:00,
2013-04-10 16:12:00,56.0,46.0,30.14,SW,217,4.0,12.0,69,0.00,,,0.26,,2013-04-10 23:12:00,
2013-04-10 16:22:00,56.0,46.0,30.14,SW,217,4.0,12.0,69,0.00,,,0.26,,2013-04-10 23:22:00,
2013-04-10 16:32:00,52.0,47.0,30.16,ESE,113,1.0,3.0,84,0.00,,,0.26,,2013-04-10 23:32:00,
2013-04-10 16:42:00,52.0,47.0,30.16,ESE,113,1.0,3.0,84,0.00,,,0.26,,2013-04-10 23:42:00,
2013-04-10 16:52:00,52.0,47.0,30.16,ESE,113,1.0,3.0,84,0.00,,,0.26,,2013-04-10 23:52:00,
2013-04-10 17:02:00,51.0,47.0,30.16,NNE,18,2.0,4.0,87,0.00,,,0.26,,2013-04-11 00:02:00,
2013-04-10 17:11:00,51.0,47.0,30.16,NNE,18,2.0,4.0,87,0.00,,,0.26,,2013-04-11 00:11:00,
2013-04-10 17:22:00,51.0,47.0,30.16,NNE,18,2.0,4.0,87,0.00,,,0.26,,2013-04-11 00:22:00,
2013-04-10 17:32:00,51.0,47.0,30.16,ESE,105,2.0,3.0,86,0.00,,,0.26,,2013-04-11 00:32:00,
2013-04-10 17:42:00,51.0,47.0,30.16,ESE,105,2.0,3.0,86,0.00,,,0.26,,2013-04-11 00:42:00,
2013-04-10 17:52:00,51.0,47.0,30.16,ESE,105,2.0,3.0,86,0.00,,,0.26,,2013-04-11 00:52:00,
2013-04-10 18:02:00,52.0,46.0,30.17,SSW,204,2.0,6.0,79,0.00,,,0.26,,2013-04-11 01:02:00,
2013-04-10 18:12:00,52.0,46.0,30.17,SSW,204,2.0,6.0,79,0.00,,,0.26,,2013-04-11 01:12:00,
2013-04-10 18:22:00,52.0,46.0,30.17,SSW,204,2.0,6.0,79,0.00,,,0.26,,2013-04-11 01:22:00,
2013-04-10 18:32:00,52.0,45.0,30.17,NW,304,2.0,5.0,78,0.00,,,0.26,,2013-04-11 01:32:00,
2013-04-10 18:42:00,52.0,45.0,30.17,NW,304,2.0,5.0,78,0.00,,,0.26,,2013-04-11 01:42:00,
2013-04-10 18:52:00,52.0,45.0,30.17,NW,304,2.0,5.0,78,0.00,,,0.26,,2013-04-11 01:52:00,
2013-04-10 19:02:00,51.0,46.0,30.18,SSE,160,1.0,4.0,82,0.00,,,0.26,,2013-04-11 02:02:00,
2013-04-10 19:12:00,51.0,46.0,30.18,SSE,160,1.0,4.0,82,0.00,,,0.26,,2013-04-11 02:12:00,
2013-04-10 19:22:00,51.0,46.0,30.18,SSE,160,1.0,4.0,82,0.00,,,0.26,,2013-04-11 02:22:00,
2013-04-10 19:32:00,51.0,44.0,30.18,WSW,256,0.0,5.0,78,0.00,,,0.26,,2013-04-11 02:32:00,
2013-04-10 19:42:00,51.0,44.0,30.18,WSW,256,0.0,5.0,78,0.00,,,0.26,,2013-04-11 02:42:00,
2013-04-10 19:52:00,51.0,44.0,30.18,WSW,256,0.0,5.0,78,0.00,,,0.26,,2013-04-11 02:52:00,
2013-04-10 20:02:00,51.0,43.0,30.18,East,86,2.0,3.0,73,0.00,,,0.26,,2013-04-11 03:02:00,
2013-04-10 20:12:00,51.0,43.0,30.18,East,86,2.0,3.0,73,0.00,,,0.26,,2013-04-11 03:12:00,
2013-04-10 20:22:00,51.0,43.0,30.18,East,86,2.0,3.0,73,0.00,,,0.26,,2013-04-11 03:22:00,
2013-04-10 20:33:00,51.0,43.0,30.20,SW,233,0.0,2.0,73,0.00,,,0.26,,2013-04-11 03:33:00,
2013-04-10 20:43:00,51.0,43.0,30.20,SW,233,0.0,2.0,73,0.00,,,0.26,,2013-04-11 03:43:00,
2013-04-10 20:53:00,51.0,43.0,30.20,SW,233,0.0,2.0,73,0.00,,,0.26,,2013-04-11 03:53:00,
2013-04-10 21:03:00,50.0,43.0,30.21,East,100,2.0,4.0,77,0.00,,,0.26,,2013-04-11 04:03:00,
2013-04-10 21:12:00,50.0,43.0,30.21,East,100,2.0,4.0,77,0.00,,,0.26,,2013-04-11 04:12:00,
2013-04-10 21:22:00,50.0,43.0,30.21,East,100,2.0,4.0,77,0.00,,,0.26,,2013-04-11 04:22:00,
2013-04-10 21:33:00,49.0,44.0,30.22,West,270,0.0,1.0,82,0.00,,,0.26,,2013-04-11 04:33:00,
2013-04-10 21:42:00,49.0,44.0,30.22,West,270,0.0,1.0,82,0.00,,,0.26,,2013-04-11 04:42:00,
2013-04-10 21:53:00,49.0,44.0,30.22,West,270,0.0,1.0,82,0.00,,,0.26,,2013-04-11 04:53:00,
2013-04-10 22:02:00,49.0,44.0,30.23,East,81,0.0,1.0,84,0.00,,,0.26,,2013-04-11 05:02:00,
2013-04-10 22:12:00,49.0,44.0,30.23,East,81,0.0,1.0,84,0.00,,,0.26,,2013-04-11 05:12:00,
2013-04-10 22:22:00,49.0,44.0,30.23,East,81,0.0,1.0,84,0.00,,,0.26,,2013-04-11 05:22:00,
2013-04-10 22:32:00,49.0,44.0,30.24,NNW,343,0.0,1.0,82,0.00,,,0.26,,2013-04-11 05:32:00,
2013-04-10 22:42:00,49.0,44.0,30.24,NNW,343,0.0,1.0,82,0.00,,,0.26,,2013-04-11 05:42:00,
2013-04-10 22:52:00,49.0,44.0,30.24,NNW,343,0.0,1.0,82,0.00,,,0.26,,2013-04-11 05:52:00,
2013-04-10 23:02:00,49.0,44.0,30.24,WNW,285,0.0,0.0,82,0.00,,,0.26,,2013-04-11 06:02:00,
2013-04-10 23:12:00,49.0,44.0,30.24,WNW,285,0.0,0.0,82,0.00,,,0.26,,2013-04-11 06:12:00,
2013-04-10 23:22:00,49.0,44.0,30.24,WNW,285,0.0,0.0,82,0.00,,,0.26,,2013-04-11 06:22:00,
2013-04-10 23:32:00,48.0,43.0,30.24,WSW,254,0.0,1.0,83,0.00,,,0.26,,2013-04-11 06:32:00,
2013-04-10 23:42:00,48.0,43.0,30.24,WSW,254,0.0,1.0,83,0.00,,,0.26,,2013-04-11 06:42:00,
2013-04-10 23:52:00,48.0,43.0,30.24,WSW,254,0.0,1.0,83,0.00,,,0.26,,2013-04-11 06:52:00,